Location: Borea
(45.6167°N, 23.0167°E)
Time: 02:10:22
(UTC+00:00)

OPS 8068 - Pass Details

Date: 28 February 2024
Orbit: 631 x 963 km, 98.3° (Epoch: 13 April)

Event Time Altitude Azimuth Distance (km) Brightness Sun altitude
Rises 02:07:07 0° 132° (SE) 2,933 ? -32.1°
Reaches altitude 10° 02:09:32 10° 120° (ESE) 2,051 ? -31.7°
Maximum altitude 02:13:13 26° 64° (ENE) 1,321 ? -31.1°
Drops below altitude 10° 02:17:05 10° 8° (N) 2,176 ? -30.5°
Sets 02:19:43 0° 357° (N) 3,153 ? -30.1°
